#timestamp,LO_Frequency,Hit,StdDev 
1458892815.1,286047001.3,N
1458892835.8,286047030.9,Y
1458892855.7,286047021.6,P
1458892875.5,286047013.0,N
1458892895.3,286047013.8,N
1458892915.2,286047011.8,N
1458892935.9,286047009.7,N
1458892955.7,286047023.2,Y
1458892975.6,286046999.9,P
1458892995.4,286046998.2,N
1458893015.2,286047001.2,N
1458893035.1,286046995.5,N
1458893036.0,286046995.5,N
1458893055.8,286046999.5,N
1458893075.6,286046996.6,N
1458893095.5,286046997.3,N
1458893115.3,286046995.5,N
1458893135.1,286046990.5,N
1458893155.8,286046989.2,N
1458893175.7,286046993.1,N
1458893195.5,286046991.3,N
1458893215.3,286046992.8,N
1458893235.2,286046992.5,N
1458893255.9,286046997.5,N
1458893275.7,286046995.8,N
1458893295.6,286046995.6,N
1458893315.4,286046995.8,N
1458893335.2,286046995.4,N
1458893355.1,286046995.5,N
1458893356.0,286046995.5,N
1458893375.8,286046993.7,N
1458893395.6,286046995.5,N
1458893415.4,286046993.5,N
1458893435.3,286046999.1,N
1458893455.1,286046997.1,N
1458893475.8,286046993.5,N
1458893495.7,286046992.4,N
1458893515.5,286046992.4,N
1458893535.3,286046994.5,N
1458893555.2,286046996.1,N
1458893575.9,286046993.4,N
1458893595.7,286046992.6,Y
1458893615.6,286046998.4,P
1458893635.4,286046999.2,N
1458893655.2,286046998.7,N
1458893675.1,286047001.2,N
1458893676.0,286047001.2,N
1458893695.8,286046996.8,N
1458893715.6,286046998.1,N
1458893735.5,286046998.6,N
1458893755.3,286047001.0,N
1458893775.1,286047000.3,N
1458893795.8,286046999.8,N
1458893815.7,286047004.4,N
1458893835.5,286047001.4,N
1458893855.3,286047007.3,Y
1458893875.2,286047007.5,P
1458893895.0,286047006.4,N
1458893895.9,286047006.4,N
1458893915.7,286047008.7,N
1458893935.6,286047004.6,N
1458893955.4,286047006.8,N
1458893975.2,286047006.0,N
1458893995.1,286047004.6,N
1458893996.0,286047004.6,N
1458894015.8,286047008.9,Y
1458894035.6,286047003.5,P
1458894055.5,286047003.9,P
1458894075.3,286047005.6,P
1458894095.1,286047001.7,N
1458894115.9,286047001.3,N
1458894135.7,286047000.2,N
1458894155.5,286047000.8,N
1458894175.4,286047002.8,N
1458894195.2,286047002.0,N
1458894215.0,286047002.7,N
1458894215.9,286047002.7,N
1458894235.8,286047002.9,N
1458894255.6,286047005.5,Y
1458894275.4,286047004.0,P
1458894295.3,286047002.9,P
1458894315.1,286047006.0,P
1458894316.0,286047006.0,Y
1458894335.8,286047000.3,P
1458894355.7,286046999.3,N
1458894375.5,286047001.0,N
1458894395.3,286046998.8,N
1458894415.2,286047002.3,N
1458894435.9,286046999.1,N
1458894455.7,286047002.2,N
1458894475.5,286047000.7,N
1458894495.4,286047002.6,N
1458894515.2,286047001.8,N
1458894535.0,286047002.0,N
1458894535.9,286047002.0,N
1458894555.8,286047005.4,Y
1458894575.6,286047005.2,P
1458894595.4,286047009.2,P
1458894615.3,286047007.2,N
1458894635.1,286047006.9,N
1458894655.8,286047009.7,Y
1458894675.7,286047003.1,P
1458894695.5,286047003.2,N
1458894715.3,286047003.2,N
1458894735.2,286046999.8,N
1458894755.9,286047000.2,N
1458894775.7,286047001.7,N
1458894795.6,286047001.6,N
1458894815.4,286047002.4,N
1458894835.2,286046999.9,N
1458894855.1,286047000.9,N
1458894856.0,286047000.9,N
1458894875.8,286046999.0,N
1458894895.6,286046999.9,N
1458894915.5,286046998.7,N
1458894935.3,286046997.4,N
1458894955.1,286046998.8,N
1458894975.8,286046999.5,N
1458894995.7,286046996.8,N
1458895015.5,286046996.4,N
1458895035.3,286046997.9,N
1458895055.2,286046995.7,N
1458895075.9,286046994.9,N
1458895095.7,286046996.2,N
1458895115.6,286046990.3,Y
1458895135.4,286046990.8,P
1458895155.2,286046991.6,N
1458895175.1,286046992.9,N
1458895176.0,286046992.9,N
1458895195.8,286046990.5,N
1458895215.6,286046988.8,Y
1458895235.5,286046994.7,P
1458895255.3,286046991.3,P
1458895275.1,286046992.0,P
1458895295.9,286046994.4,Y
1458895315.7,286047002.0,P
1458895335.5,286047002.7,N
1458895355.4,286047001.2,N
1458895375.2,286046997.9,N
1458895395.0,286047000.7,N
1458895395.9,286047000.7,N
1458895415.8,286047000.5,N
1458895435.6,286046997.1,N
1458895455.4,286046995.2,N
1458895475.3,286046990.1,Y
1458895495.1,286046995.9,P
1458895496.0,286046995.9,N
1458895515.8,286046994.7,P
1458895535.7,286046993.5,Y
1458895555.5,286046997.9,P
1458895575.3,286046997.8,N
1458895595.2,286046997.2,P
1458895615.9,286046997.4,Y
1458895635.7,286047002.4,P
1458895655.6,286047004.2,N
1458895675.4,286047004.0,N
1458895695.2,286047003.2,N
1458895715.1,286047008.7,Y
1458895716.0,286047008.7,P
1458895735.8,286047007.3,N
1458895755.6,286047005.6,N
1458895775.5,286047001.8,N
1458895795.3,286047002.8,N
1458895815.1,286047000.9,N
1458895835.9,286047000.3,N
1458895855.7,286047001.1,N
1458895875.5,286047003.5,N
1458895895.3,286047002.4,N
1458895915.2,286046998.7,N
1458895935.0,286047002.4,N
1458895935.9,286047002.4,N
1458895955.7,286047002.6,N
1458895975.6,286047002.4,N
1458895995.4,286047007.0,N
1458896015.2,286047005.6,N
1458896035.1,286047003.7,N
1458896036.0,286047003.7,N
1458896055.8,286047001.7,N
1458896075.6,286047000.9,N
1458896095.5,286047001.1,N
1458896115.3,286046998.5,N
1458896135.1,286047000.6,N
1458896155.9,286046999.2,N
1458896175.7,286046997.3,N
1458896195.5,286046996.3,N
1458896215.4,286046993.1,N
1458896235.2,286046990.9,N
1458896255.0,286046988.1,Y
1458896255.9,286046988.1,P
1458896275.8,286046982.4,N
1458896295.6,286046981.0,N
1458896315.4,286046979.7,N
1458896335.3,286046979.6,N
1458896355.1,286046979.8,N
1458896356.0,286046979.8,N
1458896375.8,286046980.6,N
1458896395.6,286046983.6,N
